Rygge, Norway

4:47 AM CEST on April 23, 2018 (GMT +0200)
Rygge Air Base

Weather History for ENRY - October, 2012

Change the Weather History Date:

Friday, October 12, 2012

  Actual Average Record
Temperature  
Mean Temperature 38 °F -  
Max Temperature 47 °F 44 °F 59 °F (2001)
Min Temperature 28 °F 35 °F 28 °F (2012)
Degree Days  
Heating Degree Days 28    
Moisture  
Dew Point 33 °F    
Average Humidity 86    
Maximum Humidity 100    
Minimum Humidity 54    
Precipitation  
Precipitation 0.00 in - - ()
Sea Level Pressure  
Sea Level Pressure 30.00 in    
Wind  
Wind Speed 4 mph ()    
Max Wind Speed 10 mph    
Max Gust Speed -    
Visibility 3.5 miles    
Events Fog , Rain    
Averages and records for this station are not official NWS values.
T = Trace of Precipitation, MM = Missing Value Source: Averaged Metar Reports

Daily Weather History Graph

Daily Weather History Graph

Search for Another Location

Airport or City:

Astronomy

Oct. 12, 2012 Rise Set
Actual Time 7:48 AM CEST 6:16 PM CEST
Civil Twilight 7:07 AM CEST 6:58 PM CEST
Nautical Twilight 6:19 AM CEST 7:45 PM CEST
Astronomical Twilight 5:31 AM CEST 8:33 PM CEST
Moon 3:29 AM CEST (10/12) 4:51 PM CEST (10/12)
Length of Visible Light 11h 50m
Length of Day
10h 28m
Waning Crescent, 12% of the Moon is Illuminated
Oct 12
Waning Crescent
Oct 15
New
Oct 22
First Quarter
Oct 29
Full
Nov 7
Last Quarter

Hourly Weather History & Observations

Time (CEST) Temp. Windchill Dew Point Humidity Pressure Visibility Wind Dir Wind Speed Gust Speed Precip Events Conditions
12:20 AM 32.0 °F - 32.0 °F 100% 29.98 in - NNE 2.3 mph - N/A   Unknown
12:50 AM 32.0 °F - 30.2 °F 93% 29.98 in 0.3 mi NE 1.2 mph - N/A   Unknown
1:20 AM 30.2 °F - 30.2 °F 100% 29.98 in 0.2 mi NE 1.2 mph - N/A   Mostly Cloudy
1:50 AM 30.2 °F - 30.2 °F 100% 29.98 in 0.2 mi Variable 1.2 mph - N/A   Scattered Clouds
2:00 AM 31 °F - 30 °F 95% 30.01 in 0 mi Calm Calm - - Fog Fog
2:20 AM 30.2 °F - 30.2 °F 100% 29.98 in 0.2 mi Calm Calm - N/A   Partly Cloudy
2:50 AM 30.2 °F - 28.4 °F 93% 29.98 in 0.1 mi NE 2.3 mph - N/A   Mostly Cloudy
3:20 AM 30.2 °F - 28.4 °F 93% 29.98 in 0.3 mi ENE 1.2 mph - N/A   Unknown
3:50 AM 30.2 °F - 28.4 °F 93% 29.98 in 0.1 mi Variable 1.2 mph - N/A   Overcast
4:20 AM 28.4 °F - 28.4 °F 100% 29.98 in 6.2 mi Calm Calm - N/A   Scattered Clouds
4:50 AM 28.4 °F - 28.4 °F 100% 29.98 in 6.2 mi NE 2.3 mph - N/A   Mostly Cloudy
5:20 AM 28.4 °F - 28.4 °F 100% 29.98 in 6.2 mi Variable 2.3 mph - N/A   Overcast
6:20 AM 30.2 °F - 28.4 °F 93% 29.98 in - North 2.3 mph - N/A   Clear
6:50 AM 30.2 °F - 30.2 °F 100% 29.98 in - NNE 2.3 mph - N/A   Clear
7:20 AM 30.2 °F 26.7 °F 30.2 °F 100% 29.98 in - North 3.5 mph - N/A   Clear
7:50 AM 32.0 °F 27.5 °F 30.2 °F 93% 29.98 in - NNE 4.6 mph - N/A   Clear
8:00 AM 32 °F - 31 °F 94% 30.01 in 34 mi NE 4.5 mph - -   Partly Cloudy
8:20 AM 32.0 °F 27.5 °F 32.0 °F 100% 29.98 in - NE 4.6 mph - N/A   Clear
8:50 AM 32.0 °F 28.7 °F 32.0 °F 100% 29.98 in - NNE 3.5 mph - N/A   Clear
9:20 AM 33.8 °F 29.6 °F 32.0 °F 93% 29.98 in - North 4.6 mph - N/A   Clear
9:50 AM 33.8 °F 28.6 °F 33.8 °F 100% 30.01 in - North 5.8 mph - N/A   Clear
10:20 AM 35.6 °F 30.7 °F 33.8 °F 93% 30.01 in - NNE 5.8 mph - N/A   Clear
10:50 AM 37.4 °F 34.9 °F 35.6 °F 93% 30.01 in - Variable 3.5 mph - N/A   Clear
11:20 AM 39.2 °F 34.2 °F 37.4 °F 93% 30.01 in - North 6.9 mph - N/A   Clear
11:50 AM 41.0 °F 35.8 °F 37.4 °F 87% 30.01 in - NNE 8.1 mph - N/A   Clear
12:20 PM 42.8 °F 39.3 °F 37.4 °F 81% 30.01 in - Variable 5.8 mph - N/A   Clear
12:50 PM 42.8 °F 38.0 °F 35.6 °F 76% 30.01 in 6.2 mi NNE 8.1 mph - N/A   Partly Cloudy
1:20 PM 42.8 °F - 35.6 °F 76% 30.01 in 6.2 mi Variable 2.3 mph - N/A   Partly Cloudy
1:50 PM 46.4 °F 42.4 °F 33.8 °F 62% 30.01 in - NNE 8.1 mph - N/A   Clear
2:00 PM 45 °F - 34 °F 56% 30.01 in 34 mi NNE 8.9 mph - -   Partly Cloudy
2:20 PM 44.6 °F 40.7 °F 33.8 °F 66% 30.01 in - North 6.9 mph - N/A   Clear
2:50 PM 46.4 °F 42.9 °F 33.8 °F 62% 30.01 in - NE 6.9 mph - N/A   Clear
3:20 PM 46.4 °F 43.5 °F 33.8 °F 62% 29.98 in - ENE 5.8 mph - N/A   Clear
3:50 PM 48.2 °F - 33.8 °F 58% 29.98 in 6.2 mi NE 9.2 mph - N/A   Partly Cloudy
4:50 PM 48.2 °F - 32.0 °F 54% 29.98 in - NE 9.2 mph - N/A   Clear
5:20 PM 46.4 °F 42.4 °F 32.0 °F 57% 29.98 in 6.2 mi NE 8.1 mph - N/A   Partly Cloudy
5:50 PM 46.4 °F 41.9 °F 33.8 °F 62% 29.98 in 6.2 mi NNE 9.2 mph - N/A Rain Rain Showers
6:20 PM 42.8 °F 39.3 °F 35.6 °F 76% 29.98 in 6.2 mi NE 5.8 mph - N/A   Scattered Clouds
6:50 PM 41.0 °F 36.4 °F 35.6 °F 81% 30.01 in - NE 6.9 mph - N/A   Clear
7:20 PM 41.0 °F 35.2 °F 35.6 °F 81% 30.01 in - NE 9.2 mph - N/A   Clear
7:50 PM 39.2 °F 34.2 °F 33.8 °F 81% 30.01 in - NE 6.9 mph - N/A   Clear
8:00 PM 40 °F - 35 °F 74% 30.02 in 34 mi NE 6.7 mph - -   Partly Cloudy
8:50 PM 37.4 °F 31.4 °F 33.8 °F 87% 30.01 in - NE 8.1 mph - N/A   Clear
9:20 PM 37.4 °F 31.4 °F 33.8 °F 87% 30.01 in - NE 8.1 mph - N/A   Clear
9:50 PM 37.4 °F 30.3 °F 35.6 °F 93% 30.01 in - NE 10.4 mph - N/A   Clear
10:20 PM 37.4 °F 30.3 °F 33.8 °F 87% 30.01 in - NE 10.4 mph - N/A   Clear
10:50 PM 37.4 °F 31.4 °F 33.8 °F 87% 30.01 in 6.2 mi NE 8.1 mph - N/A   Unknown
11:20 PM 37.4 °F 31.4 °F 33.8 °F 87% 30.01 in - NE 8.1 mph - N/A   Clear
11:50 PM 35.6 °F 28.6 °F 33.8 °F 93% 30.01 in - NE 9.2 mph - N/A   Clear